[[{"header":{"parameterUnit":"m.s-1","parameterCategory":1,"la1":30.2991,"la2":30.254,"lo1":-89.0895,"lo2":-89.0444,"dy":0.0017,"dx":0.0017,"nx":28,"ny":28,"refTime":"2023-08-22T09:00:00:Z","depth":0,"parameterNumber":2,"parameterNumberName":"U-component_of_WINDS"},"data":[0,0,0,0,0,0,0,0,0,0,0,0,0,0,0,0,0,0,0,0,0,0,0,0,0,0,0,0,0,0,0,0,0,0,0,0,0,0,0,0,0,0,0,0,0,0,0,0,0,0,0,0,0,0,0,0,0,0,1.3717,1.3718,0,1.3809,1.381,1.3812,1.3821,1.382,1.3819,1.3818,1.3912,1.3916,1.3919,0,0,0,0,0,0,0,0,0,0,0,0,0,1.3549,1.3552,1.3717,1.3718,1.372,1.3809,1.3811,1.3812,1.3821,1.382,1.3819,1.3818,1.3911,1.3915,1.3919,0,0,0,0,0,0,0,0,0,0,0,0,0,1.363,1.3553,1.3717,1.3735,1.3738,1.3809,1.3811,1.3812,1.3822,1.382,1.3819,1.3817,1.391,1.3915,1.392,1.3979,0,0,1.3935,1.3938,0,0,0,0,0,0,0,0,1.3625,1.3636,1.3731,1.3734,1.3737,1.3802,1.3786,1.3868,1.3822,1.379,1.3818,1.3817,1.3877,1.3885,1.3905,1.3984,1.3988,1.3936,1.3939,1.3941,1.3943,0,0,0,0,0,0,0,1.362,1.3632,1.3754,1.3733,1.3736,1.3739,1.3748,1.3801,1.384,1.3792,1.3793,1.3804,1.3878,1.39,1.3907,1.3989,1.3936,1.394,1.3943,1.3945,1.4122,1.4124,0,0,0,0,0,0,1.3611,1.3627,1.3751,1.3756,1.3677,1.3743,1.3754,1.3783,1.384,1.3847,1.3805,1.3804,1.3892,1.3901,1.3911,1.3984,1.3941,1.3946,1.3949,1.4121,1.4123,1.4124,0,0,0,0,0,0,1.3607,1.3622,1.3747,1.3692,1.3708,1.3747,1.378,1.3785,1.3807,1.3849,1.3856,1.382,1.3891,1.3903,1.3962,1.3988,1.3948,1.3953,1.4119,1.4121,1.4124,1.4132,0,0,0,0,0,0,1.3602,1.362,1.3643,1.3693,1.3711,1.3797,1.3781,1.3788,1.3816,1.3816,1.3865,1.3872,1.3891,1.3955,1.3967,1.3994,1.3957,1.4117,1.412,1.4123,1.4129,1.4134,1.4138,0,0,0,0,0,1.3596,1.3642,1.3644,1.3659,1.3741,1.3799,1.3809,1.383,1.3818,1.3841,1.3869,1.3871,1.3983,1.3961,1.3975,1.4003,1.4115,1.4119,1.4122,1.4127,1.4133,1.4138,0,0,0,0,0,0,1.3594,1.3648,1.3652,1.3715,1.3752,1.38,1.383,1.3836,1.3877,1.3875,1.3899,1.391,1.3968,1.3992,1.3966,1.4064,1.4048,1.4055,1.4047,1.4053,1.4057,1.405,1.3961,0,0,0,0,0,1.36,1.3643,1.3689,1.374,1.3758,1.3791,1.3817,1.383,1.3869,1.3885,1.3917,1.3955,1.3999,1.4027,1.407,1.4133,1.4144,1.416,1.4164,1.4168,1.4173,1.4209,1.4216,1.4137,1.4137,1.4137,0,0,1.3615,1.365,1.3675,1.374,1.377,1.3814,1.3804,1.385,1.3883,1.3892,1.395,1.3974,1.4018,1.408,1.4109,1.4101,1.4198,1.4173,1.4175,1.4179,1.4213,1.4221,1.4228,1.4139,1.4139,1.4138,0,0,1.3663,1.3694,1.374,1.3771,1.3817,1.3839,1.385,1.3898,1.3914,1.3973,1.3981,1.402,1.4095,1.4126,1.4152,1.4213,1.4217,1.4227,1.425,1.4284,1.4291,1.4296,1.4318,1.4326,1.4232,1.4232,1.4232,0,1.3674,1.3741,1.3763,1.3809,1.3837,1.3849,1.3895,1.3924,1.3982,1.4001,1.3993,1.4088,1.4118,1.4187,1.4202,1.4223,1.4236,1.4221,1.4288,1.4294,1.43,1.4321,1.4329,1.4233,1.4233,1.4233,1.4233,0,1.3753,1.3798,1.383,1.3886,1.3918,1.3964,1.3994,1.4023,1.4034,1.4057,1.4116,1.4154,1.4204,1.4222,1.4232,1.4293,1.4287,1.4283,1.4267,1.4308,1.4328,1.4336,1.4234,1.4234,1.4234,1.4233,0,0,1.3801,1.3869,1.388,1.3906,1.3959,1.3994,1.4042,1.4092,1.4117,1.4156,1.4197,1.426,1.4257,1.4286,1.4301,1.4331,1.4378,1.4324,1.4325,1.4332,1.4447,1.4449,1.4458,1.4381,1.4382,1.4384,1.4443,0,1.3854,1.3939,1.3961,1.4032,1.4075,1.4087,1.4128,1.4164,1.4187,1.4227,1.4252,1.4297,1.4289,1.4307,1.4338,1.4365,1.4401,1.4362,1.4418,1.442,1.4406,1.4469,1.4471,1.4525,1.4451,1.4452,1.4453,0,1.3928,1.397,1.4046,1.4094,1.4113,1.4149,1.4197,1.4235,1.4277,1.4291,1.4325,1.4336,1.4386,1.4368,1.4437,1.441,1.4435,1.4452,1.4455,1.446,1.4439,1.4476,1.4543,1.4551,1.4466,1.4465,1.4464,0,1.3955,1.4031,1.4086,1.4108,1.4165,1.4191,1.4215,1.4256,1.4285,1.4327,1.4346,1.4393,1.4419,1.4455,1.448,1.4464,1.4547,1.4531,1.456,1.456,1.4577,1.4575,1.4649,1.4593,1.4593,1.4593,1.4593,0,1.4013,1.4059,1.4099,1.4133,1.4185,1.421,1.4261,1.4286,1.4323,1.4362,1.4375,1.4412,1.4442,1.4483,1.4502,1.4557,1.4568,1.4582,1.4586,1.458,1.4578,1.4596,1.4593,1.4595,1.4595,1.4594,1.4594,0,1.4052,1.4081,1.4142,1.4191,1.4205,1.4241,1.4283,1.4317,1.434,1.439,1.4403,1.444,1.4489,1.4517,1.4578,1.4592,1.4652,1.4655,1.4638,1.4639,1.4668,1.4664,1.4755,1.4768,1.4704,1.4704,1.4705,0,1.4086,1.4122,1.4175,1.4203,1.4228,1.4272,1.4302,1.4328,1.4359,1.441,1.4437,1.4487,1.4528,1.4606,1.4638,1.4685,1.4689,1.4718,1.4696,1.469,1.469,1.4687,1.4691,1.4721,1.4722,1.4722,1.4722,0,1.4144,1.4157,1.42,1.4247,1.4283,1.4321,1.436,1.4382,1.4415,1.4448,1.4498,1.453,1.4593,1.4642,1.4693,1.4719,1.4726,1.4729,1.4738,1.4732,1.4721,1.4727,1.4647,1.4727,1.4726,1.4726,1.4726,1.4726,1.4182,1.4214,1.4257,1.4304,1.4336,1.4372,1.4406,1.4435,1.4477,1.453,1.4544,1.4596,1.4639,1.4707,1.4734,1.4776,1.4771,1.4785,1.4788,1.4791,1.4792,1.4715,1.4785,1.4785,1.4785,1.4785,1.4785,0,1.4241,1.4269,1.4312,1.4366,1.4403,1.4408,1.4451,1.4481,1.4528,1.4567,1.4607,1.4665,1.4713,1.475,1.4799,1.4826,1.483,1.4838,1.4836,1.4842,1.4793,1.478,1.4833,1.4833,1.4833,1.4833,1.4833,1.4833,1.4275,1.4331,1.4349,1.442,1.4449,1.4501,1.4525,1.4558,1.4589,1.4654,1.4694,1.4717,1.4756,1.4808,1.4853,1.4862,1.488,1.4886,1.4896,1.485,1.4845,1.484,1.4828,1.489,1.489,1.4941,1.4942,1.4942]},{"header":{"parameterUnit":"m.s-1","parameterCategory":1,"la1":30.2991,"la2":30.254,"lo1":-89.0895,"lo2":-89.0444,"dy":0.0017,"dx":0.0017,"nx":28,"ny":28,"refTime":"2023-08-22T09:00:00:Z","depth":0,"parameterNumber":3,"parameterNumberName":"V-component_of_WINDS"},"data":[0,0,0,0,0,0,0,0,0,0,0,0,0,0,0,0,0,0,0,0,0,0,0,0,0,0,0,0,0,0,0,0,0,0,0,0,0,0,0,0,0,0,0,0,0,0,0,0,0,0,0,0,0,0,0,0,0,0,1.7927,1.7926,0,1.7816,1.7815,1.7813,1.7729,1.7728,1.7727,1.7727,1.7606,1.7603,1.7601,0,0,0,0,0,0,0,0,0,0,0,0,0,1.8062,1.806,1.7928,1.7926,1.7925,1.7816,1.7814,1.7813,1.7729,1.7728,1.7727,1.7726,1.7607,1.7604,1.7601,0,0,0,0,0,0,0,0,0,0,0,0,0,1.7982,1.8059,1.7928,1.787,1.7864,1.7816,1.7814,1.7812,1.7729,1.7728,1.7727,1.7726,1.7608,1.7604,1.76,1.7599,0,0,1.7589,1.7587,0,0,0,0,0,0,0,0,1.7986,1.7977,1.788,1.7874,1.7867,1.7785,1.7817,1.7741,1.7729,1.778,1.7727,1.7725,1.7666,1.7657,1.7639,1.7594,1.7588,1.7588,1.7586,1.7584,1.7583,0,0,0,0,0,0,0,1.7992,1.7981,1.7883,1.7878,1.787,1.7847,1.7835,1.7802,1.773,1.7776,1.7769,1.7757,1.7662,1.7642,1.7635,1.7587,1.7588,1.7585,1.7583,1.7581,1.7534,1.7535,0,0,0,0,0,0,1.8008,1.7986,1.7887,1.788,1.7925,1.7846,1.7832,1.7812,1.7731,1.7717,1.7759,1.7754,1.7649,1.764,1.7631,1.7624,1.7584,1.7581,1.7579,1.7533,1.7534,1.7536,0,0,0,0,0,0,1.8011,1.7999,1.7891,1.7931,1.7916,1.7845,1.7824,1.7811,1.7791,1.7718,1.7704,1.7752,1.7648,1.7636,1.7608,1.7618,1.7579,1.7576,1.7532,1.7534,1.7535,1.7611,0,0,0,0,0,0,1.8015,1.8001,1.8002,1.7932,1.7914,1.7873,1.7824,1.7809,1.7786,1.7779,1.7708,1.7695,1.7646,1.7614,1.7604,1.7612,1.7573,1.7531,1.7533,1.7534,1.7607,1.7615,1.7621,0,0,0,0,0,1.802,1.8026,1.8002,1.7991,1.7914,1.7874,1.7863,1.7808,1.7787,1.7786,1.7739,1.7698,1.7619,1.7612,1.76,1.7607,1.753,1.7532,1.7534,1.7604,1.7613,1.7621,0,0,0,0,0,0,1.8096,1.8016,1.7988,1.7973,1.7931,1.786,1.7856,1.782,1.7782,1.7777,1.7708,1.7693,1.7672,1.7636,1.763,1.7602,1.7569,1.7569,1.7626,1.7634,1.7641,1.765,1.757,0,0,0,0,0,1.8112,1.8088,1.8018,1.8011,1.7992,1.7928,1.7908,1.787,1.7823,1.7804,1.7755,1.7709,1.7674,1.7652,1.7615,1.7601,1.7584,1.76,1.7608,1.7614,1.7615,1.7604,1.761,1.7543,1.7543,1.7543,0,0,1.8143,1.8096,1.8085,1.8025,1.7988,1.7963,1.7914,1.7889,1.7869,1.78,1.7771,1.7733,1.7677,1.7657,1.7645,1.7626,1.7629,1.7617,1.7622,1.7619,1.7607,1.7613,1.7619,1.7545,1.7544,1.7544,0,0,1.8186,1.8149,1.8139,1.8103,1.8049,1.8007,1.8004,1.7938,1.7911,1.7882,1.7829,1.7803,1.7744,1.7707,1.768,1.7709,1.767,1.7699,1.7736,1.7726,1.7732,1.7736,1.7746,1.775,1.77,1.77,1.77,0,1.8231,1.8194,1.8138,1.8117,1.8092,1.803,1.8018,1.7985,1.7921,1.7904,1.7885,1.781,1.7767,1.7737,1.7744,1.7724,1.7718,1.7707,1.7736,1.774,1.7743,1.7751,1.7755,1.7704,1.7704,1.7703,1.7703,0,1.8251,1.8225,1.8223,1.8165,1.814,1.8123,1.8063,1.8043,1.8007,1.7967,1.7936,1.7884,1.7836,1.7826,1.7789,1.7789,1.7779,1.7749,1.7715,1.7754,1.7761,1.7764,1.771,1.7708,1.7707,1.7706,0,0,1.8339,1.8251,1.8251,1.8224,1.8159,1.8138,1.8118,1.8073,1.8057,1.8014,1.7995,1.7947,1.7918,1.7888,1.7846,1.7838,1.7864,1.7808,1.7806,1.782,1.786,1.7883,1.7888,1.7838,1.7838,1.7838,1.7864,0,1.8372,1.8336,1.8285,1.8264,1.824,1.8181,1.8163,1.812,1.8082,1.8053,1.8009,1.7976,1.7941,1.7922,1.7911,1.7864,1.7871,1.7861,1.7817,1.7816,1.7833,1.7892,1.7916,1.7943,1.7867,1.7867,1.7868,0,1.8406,1.8369,1.8347,1.8285,1.8272,1.8258,1.8212,1.8187,1.8136,1.8108,1.8075,1.8031,1.8005,1.7975,1.7937,1.7931,1.791,1.7883,1.7883,1.7876,1.7844,1.7886,1.7951,1.7955,1.7871,1.7871,1.7871,0,1.8472,1.8417,1.8396,1.8375,1.8302,1.8293,1.8261,1.821,1.8187,1.8146,1.8129,1.8086,1.8061,1.8027,1.7972,1.7955,1.7939,1.7905,1.7914,1.7916,1.7913,1.7914,1.7975,1.7901,1.79,1.79,1.79,0,1.8514,1.8503,1.8425,1.8413,1.8398,1.8339,1.8325,1.8287,1.8243,1.822,1.8165,1.8145,1.8073,1.8043,1.7999,1.7974,1.7963,1.7939,1.7927,1.7944,1.7947,1.7929,1.7925,1.7901,1.7901,1.7901,1.7901,0,1.8586,1.8534,1.8507,1.8441,1.8424,1.8416,1.8357,1.8342,1.83,1.8272,1.8262,1.8196,1.8158,1.81,1.8044,1.8014,1.7997,1.7977,1.8015,1.8007,1.802,1.802,1.8071,1.8074,1.7999,1.8,1.8,0,1.8616,1.8606,1.8539,1.8522,1.8493,1.8465,1.8441,1.8381,1.8358,1.83,1.8292,1.825,1.8214,1.8157,1.8102,1.8059,1.8038,1.8059,1.8031,1.8048,1.8038,1.8039,1.8037,1.8065,1.8067,1.8068,1.8068,0,1.8675,1.865,1.8619,1.8579,1.8553,1.8517,1.8479,1.8467,1.8399,1.8375,1.8338,1.831,1.8254,1.8213,1.8163,1.8127,1.8086,1.8078,1.8077,1.8094,1.8116,1.8104,1.8032,1.8077,1.8076,1.8075,1.8075,1.8074,1.8726,1.8715,1.8667,1.8633,1.8599,1.8565,1.8547,1.8504,1.8473,1.8424,1.839,1.8355,1.8303,1.8232,1.8199,1.8168,1.815,1.815,1.815,1.8151,1.8157,1.8122,1.8159,1.8158,1.8158,1.8158,1.8157,0,1.8782,1.8749,1.8719,1.8669,1.8642,1.8608,1.8564,1.8544,1.8514,1.8471,1.8437,1.8393,1.8353,1.8296,1.8251,1.8238,1.8218,1.8228,1.8228,1.8221,1.8175,1.818,1.8245,1.8245,1.8245,1.8245,1.8245,1.8245,1.8809,1.8788,1.8757,1.8718,1.8683,1.865,1.8627,1.8595,1.856,1.8515,1.8482,1.8446,1.8396,1.8348,1.8309,1.8293,1.8278,1.8295,1.8273,1.8232,1.8224,1.8216,1.822,1.8292,1.8293,1.832,1.8321,1.8321]}]]